Terug naar catalogus

GEO IK

ActiefWetenschapLEO
NORAD 23411·PAYLOAD·🇷🇺 Russia

Gelanceerd Nov 29, 1994 vanaf Plesetsk Cosmodrome

Loading…

Volgende Passages (komende 24 uur)

TLE

VersSource: Space-Track

Epoch: Sep 14, 2026, 22:12 UTC

1 23411U 94078A   26257.92516782 -.00000015  00000-0  15372-4 0  9990
2 23411  73.6141  45.2987 0029251 224.5802 310.8602 12.40866607440190

Volg GEO IK in realtime met AllMySat

Download on the App Store